Regional Weather Roundup
Issued by NWS

Home | Current Version | Previous Version | Graphics & Text | Print | Product List | Glossary On
Versions: 1 2 3 4 5 6 7 8 9 10 11 12 13 14 15 16 17 18 19 20 21 22 23 24 25 26 27 28 29 30 31 32 33 34 35 36 37 38 39 40 41 42 43 44 45 46 47 48 49 50
000
ASUS43 KOAX 011810
RWRNE

WEATHER ROUNDUP FOR NEBRASKA
NATIONAL WEATHER SERVICE OMAHA NE
100 PM CDT SAT AUG 01 2015

NOTES: SATELLITE DATA IS BEING USED TO AUGMENT CLOUD COVER ABOVE
       12000 FEET.
       "FAIR" INDICATES FEW OR NO CLOUDS BELOW 12,000 FEET WITH NO
       SIGNIFICANT WEATHER AND/OR OBSTRUCTIONS TO VISIBILITY.

  * THESE STATIONS DO NOT REPORT WEATHER SUCH AS RAIN...SNOW OR FOG.

NEZ001>004-019>022-054>056-011900-
NEBRASKA PANHANDLE

CITY           SKY/WX    TMP DP  RH WIND       PRES   REMARKS
SCOTTSBLUFF    SUNNY     88  57  34 VRB5      30.06F
6HR MIN TEMP:  63; 6HR MAX TEMP:  88;

ALLIANCE       SUNNY     89  56  32 SW5       30.06F
6HR MIN TEMP:  58; 6HR MAX TEMP:  90;

CHADRON        SUNNY     88  55  32 N7        30.02F
6HR MIN TEMP:  57; 6HR MAX TEMP:  89;

KIMBALL        SUNNY     88  50  26 S6G16     30.12F
SIDNEY         SUNNY     90  56  31 SW15G22   30.10F
6HR MIN TEMP:  65; 6HR MAX TEMP:  90;

$$

NEZ057>060-069>072-079>082-011900-
SOUTHWEST NEBRASKA

CITY           SKY/WX    TMP DP  RH WIND       PRES   REMARKS
NORTH PLATTE   SUNNY     81  60  48 E20       30.12S
6HR MIN TEMP:  69; 6HR MAX TEMP:  81;

IMPERIAL       SUNNY     87  63  44 SE25G31   30.09F
6HR MIN TEMP:  62; 6HR MAX TEMP:  88;

LEXINGTON      SUNNY     83  60  44 E13       30.12S
MCCOOK         SUNNY     85  62  46 SE10      30.09F
6HR MIN TEMP:  67; 6HR MAX TEMP:  85;

OGALLALA       SUNNY     83  65  53 SE16      30.09F
$$

NEZ005>010-023>029-035>040-094-011900-
NORTH CENTRAL NEBRASKA

CITY           SKY/WX    TMP DP  RH WIND       PRES   REMARKS
VALENTINE      CLOUDY    64  57  78 S28G36    30.05F
6HR MIN TEMP:  61; 6HR MAX TEMP:  69; 6HR PCP:  0.54;

AINSWORTH      LGT RAIN  63  61  94 S13       30.12F
BROKEN BOW     MOSUNNY   81  55  40 NE22      30.16R
6HR MIN TEMP:  67; 6HR MAX TEMP:  86;

O`NEILL        RAIN      65  62  91 SW14      30.12F
ORD            CLOUDY    72  59  63 NW14G21   30.14R
6HR MIN TEMP:  62; 6HR MAX TEMP:  75; 6HR PCP:  0.05;

THEDFORD       PTSUNNY   75  59  57 E22G30    30.19R
$$

NEZ041-046>049-061>064-073>077-083>087-011900-
SOUTH CENTRAL NEBRASKA

CITY           SKY/WX    TMP DP  RH WIND       PRES   REMARKS
GRAND ISLAND   PTSUNNY   85  61  44 S6        30.07S
6HR MIN TEMP:  63; 6HR MAX TEMP:  86; 6HR PCP:  0.41;

AURORA         MOSUNNY   82  66  57 W3        30.06R
HASTINGS       MOSUNNY   81  61  50 S9        30.07F
6HR MIN TEMP:  66; 6HR MAX TEMP:  83;

HEBRON         MOSUNNY   86  59  39 S8        30.05F
HOLDREGE       SUNNY     82  58  44 SE12G17   30.09F
KEARNEY *      SUNNY     84  63  48 SE12      30.09S
YORK           CLOUDY    81  68  65 NW7       30.04R
$$

NEZ011>018-030>034-042>045-011900-
NORTHEAST NEBRASKA

CITY           SKY/WX    TMP DP  RH WIND       PRES   REMARKS
NORFOLK        CLOUDY    74  61  63 W13       30.06S
6HR MIN TEMP:  66; 6HR MAX TEMP:  76; 6HR PCP:  0.01;

ALBION         CLOUDY    70  60  72 NW12G17   30.09R
BLAIR          CLOUDY    76  66  71 NE5       30.02R
COLUMBUS *     CLOUDY    73  63  68 NW8       30.04R
FREMONT        CLOUDY    78  65  63 CALM      30.03R
TEKAMAH        PTSUNNY   81  69  67 CALM      30.00F
6HR MIN TEMP:  63; 6HR MAX TEMP:  82;

WAYNE          CLOUDY    76  64  65 W8        30.03F
$$

NEZ050>053-065>068-078-088>093-011900-
SOUTHEAST NEBRASKA

CITY           SKY/WX    TMP DP  RH WIND       PRES   REMARKS
LINCOLN        CLOUDY    79  63  57 S9        30.02F
6HR MIN TEMP:  69; 6HR MAX TEMP:  79; 6HR PCP: TRACE;

OMAHA EPPLEY   CLOUDY    81  66  60 VRB3      30.00F
6HR MIN TEMP:  68; 6HR MAX TEMP:  81; 6HR PCP: TRACE;

BEATRICE       CLOUDY    78  64  63 S7        30.04F
FALLS CITY     MOSUNNY   82  70  66 CALM      30.03F
6HR MIN TEMP:  70; 6HR MAX TEMP:  84;

NEBRASKA CITY  PTSUNNY   79  64  59 S6        30.02S
PLATTSMOUTH    CLOUDY    79  67  68 S7        30.03R
$$

NEZ044-045-051>053-067-011900-
OMAHA AREA

CITY           SKY/WX    TMP DP  RH WIND       PRES   REMARKS
OMAHA EPPLEY   CLOUDY    81  66  60 VRB3      30.00F
6HR MIN TEMP:  68; 6HR MAX TEMP:  81; 6HR PCP: TRACE;

BLAIR          CLOUDY    76  66  71 NE5       30.02R
FREMONT        CLOUDY    78  65  63 CALM      30.03R
MILLARD        CLOUDY    81  66  60 SE5       30.01R
OFFUTT AFB     CLOUDY    80  66  62 VRB2      30.00F
PLATTSMOUTH    CLOUDY    79  67  68 S7        30.03R
WAHOO          FAIR      76  67  73 SE6       30.02R
$$



USA.gov is the U.S. government's official web portal to all federal, state and local government web resources and services.